[[{"header":{"parameterUnit":"m.s-1","parameterCategory":1,"la1":30.2991,"la2":30.254,"lo1":-89.0895,"lo2":-89.0444,"dy":0.0017,"dx":0.0017,"nx":28,"ny":28,"refTime":"2024-03-30T09:00:00:Z","depth":0,"parameterNumber":2,"parameterNumberName":"U-component_of_WINDS"},"data":[0,0,0,0,0,0,0,0,0,0,0,0,0,0,0,0,0,0,0,0,0,0,0,0,0,0,0,0,0,0,0,0,0,0,0,0,0,0,0,0,0,0,0,0,0,0,0,0,0,0,0,0,0,0,0,0,0,0,-1.5655,-1.5654,0,-1.5629,-1.5628,-1.5628,-1.5562,-1.556,-1.5559,-1.5558,-1.5533,-1.5534,-1.5534,0,0,0,0,0,0,0,0,0,0,0,0,0,-1.565,-1.565,-1.5655,-1.5654,-1.5654,-1.5629,-1.5628,-1.5628,-1.5562,-1.556,-1.5559,-1.5557,-1.5533,-1.5534,-1.5534,0,0,0,0,0,0,0,0,0,0,0,0,0,-1.5641,-1.565,-1.5655,-1.5618,-1.5614,-1.5629,-1.5628,-1.5628,-1.5562,-1.556,-1.5558,-1.5556,-1.5533,-1.5534,-1.5535,-1.5583,0,0,-1.5538,-1.5538,0,0,0,0,0,0,0,0,-1.5641,-1.5641,-1.5624,-1.5621,-1.5617,-1.5596,-1.5617,-1.5613,-1.5563,-1.5582,-1.5558,-1.5555,-1.5556,-1.5555,-1.5555,-1.5582,-1.5581,-1.5538,-1.5538,-1.5539,-1.5539,0,0,0,0,0,0,0,-1.5642,-1.5642,-1.5644,-1.5624,-1.5619,-1.5604,-1.56,-1.5616,-1.5581,-1.558,-1.5575,-1.5573,-1.5554,-1.5554,-1.5554,-1.558,-1.5538,-1.5538,-1.5539,-1.5539,-1.5646,-1.5648,0,0,0,0,0,0,-1.5648,-1.5643,-1.5645,-1.5644,-1.5624,-1.5605,-1.5601,-1.5605,-1.5581,-1.5575,-1.5575,-1.557,-1.5553,-1.5553,-1.5553,-1.5607,-1.5539,-1.554,-1.554,-1.5644,-1.5647,-1.5649,0,0,0,0,0,0,-1.5648,-1.5648,-1.5646,-1.5642,-1.564,-1.5608,-1.5612,-1.5606,-1.5606,-1.5577,-1.5571,-1.5582,-1.5552,-1.5551,-1.5576,-1.5606,-1.554,-1.5541,-1.5641,-1.5645,-1.5648,-1.5718,0,0,0,0,0,0,-1.5648,-1.5649,-1.5666,-1.5643,-1.5641,-1.5669,-1.5614,-1.5607,-1.5607,-1.5601,-1.5581,-1.5576,-1.555,-1.5575,-1.5577,-1.5606,-1.5542,-1.5638,-1.5643,-1.5647,-1.5713,-1.5723,-1.5732,0,0,0,0,0,-1.5648,-1.5688,-1.5668,-1.5668,-1.5662,-1.5671,-1.567,-1.5639,-1.561,-1.5628,-1.5609,-1.5577,-1.5602,-1.5578,-1.5579,-1.5609,-1.5636,-1.5641,-1.5646,-1.5708,-1.5721,-1.5732,0,0,0,0,0,0,-1.5716,-1.5684,-1.5661,-1.5694,-1.5686,-1.566,-1.5681,-1.5653,-1.5653,-1.5647,-1.5609,-1.5605,-1.5635,-1.5625,-1.5598,-1.5655,-1.5614,-1.562,-1.566,-1.5672,-1.5682,-1.5684,-1.5543,0,0,0,0,0,-1.5735,-1.5745,-1.5716,-1.5748,-1.5745,-1.5714,-1.5717,-1.5693,-1.5683,-1.568,-1.5663,-1.5655,-1.5662,-1.5666,-1.5671,-1.5711,-1.5706,-1.5733,-1.5742,-1.575,-1.5756,-1.5776,-1.5788,-1.5665,-1.5665,-1.5665,0,0,-1.5774,-1.5758,-1.5766,-1.5761,-1.5752,-1.5764,-1.5712,-1.5726,-1.5734,-1.5682,-1.5704,-1.5692,-1.5681,-1.5714,-1.5727,-1.5706,-1.5788,-1.5757,-1.5764,-1.5764,-1.5783,-1.5794,-1.5805,-1.5669,-1.5668,-1.5668,0,0,-1.5852,-1.584,-1.5865,-1.5857,-1.5843,-1.5823,-1.5829,-1.5807,-1.5797,-1.5818,-1.5779,-1.5789,-1.5801,-1.5794,-1.5793,-1.5868,-1.5838,-1.5871,-1.5921,-1.5942,-1.5951,-1.596,-1.5987,-1.5997,-1.5876,-1.5876,-1.5876,0,-1.5902,-1.5917,-1.5882,-1.5899,-1.5898,-1.5851,-1.5876,-1.587,-1.586,-1.586,-1.5837,-1.585,-1.5839,-1.587,-1.5888,-1.5889,-1.5895,-1.5872,-1.5953,-1.5961,-1.5968,-1.5993,-1.6003,-1.588,-1.588,-1.5879,-1.5879,0,-1.598,-1.5991,-1.6013,-1.6003,-1.6005,-1.6026,-1.5995,-1.6001,-1.5978,-1.596,-1.5982,-1.5968,-1.5968,-1.5974,-1.5951,-1.6001,-1.5989,-1.596,-1.5917,-1.5984,-1.6007,-1.6017,-1.5886,-1.5884,-1.5883,-1.5882,0,0,-1.6099,-1.6069,-1.6078,-1.6073,-1.6054,-1.6063,-1.6082,-1.6082,-1.6088,-1.6082,-1.6098,-1.6109,-1.6082,-1.608,-1.6056,-1.6075,-1.6135,-1.6043,-1.6042,-1.606,-1.619,-1.6211,-1.6223,-1.6116,-1.6117,-1.6119,-1.619,0,-1.6172,-1.6202,-1.6171,-1.6208,-1.6218,-1.6174,-1.6191,-1.6182,-1.6166,-1.6173,-1.6155,-1.6164,-1.6127,-1.6126,-1.6142,-1.6124,-1.6161,-1.6119,-1.613,-1.6131,-1.6133,-1.6235,-1.6258,-1.6326,-1.6199,-1.6201,-1.6202,0,-1.626,-1.6258,-1.6296,-1.6275,-1.6278,-1.6294,-1.6291,-1.6298,-1.6287,-1.6274,-1.6272,-1.6244,-1.6262,-1.6221,-1.6246,-1.6219,-1.6221,-1.6214,-1.6215,-1.6215,-1.617,-1.6237,-1.6347,-1.6357,-1.6215,-1.6214,-1.6213,0,-1.6343,-1.6349,-1.6373,-1.637,-1.6346,-1.6358,-1.6349,-1.6336,-1.6338,-1.6336,-1.6337,-1.6338,-1.6338,-1.634,-1.6312,-1.6285,-1.634,-1.6297,-1.633,-1.6331,-1.6344,-1.6343,-1.6456,-1.6347,-1.6346,-1.6346,-1.6346,0,-1.6427,-1.6452,-1.641,-1.6424,-1.6451,-1.6416,-1.6443,-1.643,-1.6419,-1.643,-1.6393,-1.6405,-1.6367,-1.6376,-1.6354,-1.6378,-1.6379,-1.6369,-1.6363,-1.6372,-1.6373,-1.6373,-1.6367,-1.6349,-1.6348,-1.6348,-1.6347,0,-1.6524,-1.6497,-1.6519,-1.6495,-1.649,-1.651,-1.649,-1.6503,-1.6484,-1.6499,-1.6501,-1.6472,-1.648,-1.6452,-1.6456,-1.6441,-1.6476,-1.6463,-1.648,-1.6475,-1.651,-1.6507,-1.6626,-1.6639,-1.6522,-1.6523,-1.6524,0,-1.6579,-1.6597,-1.6575,-1.6579,-1.6572,-1.658,-1.6582,-1.6548,-1.6551,-1.654,-1.6555,-1.6559,-1.656,-1.6575,-1.6555,-1.6557,-1.6543,-1.6584,-1.6543,-1.6551,-1.6543,-1.6542,-1.6543,-1.6593,-1.6594,-1.6595,-1.6596,0,-1.668,-1.6666,-1.6669,-1.6667,-1.667,-1.6667,-1.6662,-1.6668,-1.6632,-1.6638,-1.6645,-1.6646,-1.6649,-1.6654,-1.6652,-1.6643,-1.6614,-1.661,-1.6617,-1.6627,-1.6635,-1.6631,-1.6503,-1.6607,-1.6606,-1.6605,-1.6605,-1.6604,-1.6758,-1.6771,-1.6758,-1.6762,-1.6755,-1.6751,-1.6762,-1.6744,-1.6749,-1.6748,-1.6729,-1.6739,-1.6728,-1.6723,-1.6717,-1.6725,-1.6706,-1.6717,-1.672,-1.6723,-1.6729,-1.6635,-1.6725,-1.6725,-1.6724,-1.6724,-1.6724,0,-1.6856,-1.6845,-1.685,-1.6844,-1.6848,-1.6819,-1.6812,-1.6818,-1.6827,-1.6819,-1.6821,-1.6829,-1.6834,-1.6814,-1.6816,-1.6826,-1.6813,-1.6828,-1.6826,-1.6825,-1.6746,-1.6739,-1.6838,-1.6838,-1.6838,-1.6838,-1.6838,-1.6838,-1.6908,-1.693,-1.6914,-1.6932,-1.6921,-1.693,-1.6929,-1.6925,-1.6918,-1.6929,-1.6932,-1.6919,-1.6906,-1.6906,-1.6909,-1.6903,-1.6906,-1.6925,-1.6915,-1.6842,-1.683,-1.682,-1.6813,-1.6926,-1.6926,-1.6993,-1.6993,-1.6994]},{"header":{"parameterUnit":"m.s-1","parameterCategory":1,"la1":30.2991,"la2":30.254,"lo1":-89.0895,"lo2":-89.0444,"dy":0.0017,"dx":0.0017,"nx":28,"ny":28,"refTime":"2024-03-30T09:00:00:Z","depth":0,"parameterNumber":3,"parameterNumberName":"V-component_of_WINDS"},"data":[0,0,0,0,0,0,0,0,0,0,0,0,0,0,0,0,0,0,0,0,0,0,0,0,0,0,0,0,0,0,0,0,0,0,0,0,0,0,0,0,0,0,0,0,0,0,0,0,0,0,0,0,0,0,0,0,0,0,0.8213,0.8215,0,0.8425,0.8427,0.843,0.8556,0.8557,0.8557,0.8558,0.8776,0.8782,0.8787,0,0,0,0,0,0,0,0,0,0,0,0,0,0.7918,0.7922,0.8212,0.8215,0.8218,0.8424,0.8427,0.843,0.8556,0.8557,0.8558,0.8558,0.8775,0.8781,0.8787,0,0,0,0,0,0,0,0,0,0,0,0,0,0.8079,0.7924,0.8212,0.8305,0.8316,0.8424,0.8428,0.8431,0.8556,0.8557,0.8558,0.8559,0.8773,0.878,0.8788,0.882,0,0,0.8812,0.8816,0,0,0,0,0,0,0,0,0.807,0.809,0.8289,0.8299,0.8311,0.8465,0.8404,0.8562,0.8556,0.8465,0.8558,0.8559,0.8672,0.8688,0.8726,0.883,0.884,0.8813,0.8818,0.8821,0.8823,0,0,0,0,0,0,0,0.8058,0.8081,0.8297,0.8292,0.8305,0.8337,0.8361,0.8434,0.8561,0.8473,0.8483,0.8506,0.8678,0.8718,0.8732,0.8843,0.8813,0.882,0.8825,0.8828,0.8985,0.8984,0,0,0,0,0,0,0.8032,0.8071,0.829,0.8303,0.819,0.8342,0.8369,0.8415,0.8561,0.8584,0.8505,0.8511,0.8704,0.8723,0.8741,0.8789,0.8821,0.8829,0.8833,0.8985,0.8985,0.8984,0,0,0,0,0,0,0.8025,0.8051,0.8281,0.819,0.8222,0.8346,0.8397,0.8418,0.8459,0.8585,0.8608,0.8523,0.8706,0.8729,0.88,0.8798,0.8832,0.8839,0.8986,0.8985,0.8984,0.8885,0,0,0,0,0,0,0.8016,0.8047,0.806,0.8189,0.8226,0.8336,0.8397,0.8422,0.8472,0.8482,0.8608,0.8629,0.8708,0.8787,0.8807,0.881,0.8846,0.8987,0.8986,0.8985,0.8889,0.8881,0.8874,0,0,0,0,0,0.8005,0.8024,0.8061,0.8086,0.8245,0.8336,0.8357,0.8447,0.8471,0.8486,0.8567,0.8625,0.8794,0.8793,0.8817,0.8822,0.8987,0.8986,0.8985,0.8892,0.8882,0.8874,0,0,0,0,0,0,0.7893,0.8043,0.8085,0.8146,0.8227,0.8357,0.8379,0.8434,0.851,0.8516,0.8625,0.8653,0.8712,0.8774,0.877,0.8861,0.8898,0.8901,0.8819,0.8811,0.8803,0.8788,0.8852,0,0,0,0,0,0.7875,0.7935,0.8063,0.8105,0.8143,0.8253,0.8296,0.8358,0.8447,0.8483,0.8569,0.8653,0.8726,0.8771,0.8845,0.8897,0.8928,0.8913,0.8905,0.8898,0.8901,0.8935,0.893,0.898,0.898,0.898,0,0,0.7839,0.7928,0.796,0.8084,0.8155,0.8216,0.8282,0.8343,0.839,0.8492,0.8564,0.863,0.8731,0.8793,0.8825,0.8846,0.8893,0.8896,0.889,0.8897,0.8933,0.8928,0.8924,0.8979,0.8979,0.8979,0,0,0.7805,0.7878,0.7921,0.799,0.8095,0.8168,0.8178,0.83,0.8348,0.8421,0.8499,0.8556,0.8678,0.8748,0.8799,0.879,0.8847,0.8811,0.8772,0.8804,0.88,0.8797,0.8796,0.8794,0.8812,0.8812,0.8812,0,0.7747,0.7842,0.7936,0.7994,0.8047,0.8141,0.8186,0.8248,0.8372,0.8407,0.8428,0.8584,0.8659,0.8739,0.8737,0.8774,0.879,0.8798,0.8793,0.8791,0.8789,0.8789,0.8788,0.8807,0.8807,0.8808,0.8808,0,0.7767,0.7831,0.7853,0.7971,0.8026,0.8076,0.8178,0.8223,0.8279,0.835,0.8424,0.8517,0.8611,0.8634,0.869,0.8722,0.8733,0.8772,0.8811,0.8778,0.878,0.8781,0.88,0.8802,0.8803,0.8804,0,0,0.7671,0.7838,0.7845,0.7899,0.8022,0.8074,0.8128,0.8221,0.8257,0.8339,0.8389,0.8489,0.8526,0.8584,0.8649,0.8676,0.8665,0.8713,0.8717,0.8703,0.8708,0.8679,0.8678,0.8703,0.8703,0.8703,0.87,0,0.7657,0.776,0.7845,0.7917,0.7979,0.8068,0.8116,0.8197,0.8263,0.8326,0.84,0.847,0.8513,0.8549,0.858,0.866,0.8668,0.8661,0.8752,0.8754,0.8726,0.8679,0.8649,0.8641,0.8701,0.8702,0.8702,0,0.7655,0.7732,0.781,0.7927,0.7956,0.7997,0.8089,0.8146,0.8239,0.8286,0.835,0.8417,0.848,0.851,0.8599,0.8592,0.8634,0.8679,0.8681,0.8695,0.8727,0.8693,0.8641,0.8641,0.8703,0.8703,0.8703,0,0.7579,0.7703,0.7766,0.7809,0.7946,0.7974,0.8032,0.8126,0.8176,0.8255,0.8289,0.8374,0.8422,0.8486,0.8575,0.8589,0.8655,0.8693,0.8697,0.8695,0.8709,0.8708,0.8665,0.8731,0.8731,0.8731,0.8731,0,0.7556,0.76,0.7734,0.7773,0.7825,0.7923,0.7972,0.8038,0.8121,0.8175,0.8257,0.8306,0.8419,0.8481,0.8551,0.8614,0.8634,0.8675,0.8693,0.8669,0.8664,0.87,0.8704,0.8731,0.8731,0.8731,0.8731,0,0.7481,0.7572,0.7647,0.777,0.7802,0.7835,0.7941,0.7983,0.8053,0.812,0.8142,0.8253,0.8331,0.8425,0.8533,0.858,0.8638,0.8664,0.8606,0.8618,0.8617,0.8617,0.8599,0.8602,0.8662,0.8661,0.8661,0,0.7462,0.7498,0.7625,0.7666,0.7722,0.7788,0.7839,0.7936,0.7986,0.8094,0.8123,0.8207,0.828,0.84,0.8491,0.8574,0.8604,0.8592,0.8618,0.8592,0.8607,0.8605,0.8609,0.8586,0.8585,0.8584,0.8583,0,0.7418,0.7461,0.7531,0.7617,0.7675,0.7748,0.7824,0.7853,0.7966,0.8018,0.8098,0.8154,0.8264,0.8347,0.8442,0.8503,0.8562,0.8574,0.858,0.8557,0.8523,0.8543,0.8591,0.8575,0.8575,0.8576,0.8576,0.8577,0.7373,0.7409,0.7504,0.758,0.7647,0.7715,0.7761,0.7836,0.7905,0.8002,0.8055,0.8134,0.8227,0.836,0.8419,0.8483,0.8504,0.8512,0.8514,0.8515,0.8509,0.851,0.85,0.85,0.8501,0.8501,0.8501,0,0.7335,0.74,0.7468,0.7572,0.7631,0.768,0.7766,0.7813,0.7882,0.7963,0.8032,0.8124,0.8205,0.8301,0.8388,0.8421,0.845,0.8441,0.8441,0.8454,0.8484,0.8471,0.8416,0.8416,0.8416,0.8416,0.8416,0.8416,0.7323,0.7388,0.7442,0.7541,0.7606,0.7684,0.773,0.7794,0.7859,0.7959,0.8026,0.8087,0.8175,0.8269,0.8345,0.8372,0.8401,0.8383,0.8418,0.8444,0.8452,0.8459,0.8448,0.8388,0.8388,0.8384,0.8384,0.8383]}]]